Temp
26 25 25 25 25 25 25 25 25 25 25 25 26 26 26 26 26 26 26 26 26 26 27 27 27 27 26 26 26 26 26 26 26 25 25 25 25 25 25 25 25 25 24 24 24 24 24 24 25 25 25 25 25 26 26 26 26 25 25 26 26 25 25 25 24 23 25 25 25 26 26 26 25 25 24 24 24 23 23 23 23 23 23 22 22
26 26 25 25 25 25 25 25 25 25 25 25 26 26 26 26 26 26 26 26 26 27 27 27 27 27 27 26 26 26 26 26 26 25 25 25 25 25 25 25 25 25 24 24 24 24 24 24 25 25 25 25 25 25 26 26 25 25 25 25 25 25 25 25 24 23 24 25 25 25 26 25 25 24 24 24 24 24 23 23 23 23 23 23 22
26 26 26 25 25 25 25 25 25 25 25 25 26 26 26 26 26 27 27 26 27 27 27 27 27 27 27 27 26 26 26 26 26 25 25 25 25 25 25 25 25 24 24 24 24 24 24 24 24 25 25 25 25 25 25 25 25 25 25 25 25 25 25 25 25 24 24 24 25 25 25 25 25 25 24 24 24 24 23 23 23 23 23 23 23
26 26 26 26 25 25 25 25 25 25 25 26 26 26 26 26 26 27 27 27 27 27 27 27 27 27 27 27 27 26 26 26 26 26 25 25 25 25 25 25 25 25 25 24 24 24 24 24 24 25 25 25 25 25 25 25 25 25 25 25 25 25 25 24 24 24 24 24 24 25 25 24 25 25 24 24 24 24 24 23 23 23 23 23 23
27 27 26 26 26 26 25 25 25 25 25 26 26 26 26 26 26 27 27 27 27 27 27 27 27 27 27 27 27 27 27 26 26 26 25 25 25 25 25 25 25 25 25 25 25 24 24 24 24 24 25 25 25 25 25 25 25 25 25 25 25 24 25 24 24 24 24 24 24 24 25 24 24 24 24 24 24 24 24 23 23 23 23 22 22
27 27 27 26 26 26 26 26 26 26 26 26 26 26 26 26 27 27 27 27 27 27 27 27 27 27 27 27 27 27 27 27 26 26 26 25 25 25 25 25 25 25 25 25 25 25 25 24 24 24 24 25 25 25 25 24 24 24 24 24 24 24 24 24 24 24 24 23 24 24 24 24 24 24 24 24 24 23 23 23 23 23 22 22 22
28 27 27 27 26 26 26 26 26 26 26 26 26 27 27 27 27 27 27 27 27 27 27 27 27 27 27 27 27 27 27 27 26 26 26 26 25 25 25 25 25 25 25 25 25 25 25 25 25 25 24 25 25 25 25 24 24 24 24 24 24 24 24 24 24 24 23 23 23 23 24 24 24 24 24 24 24 24 23 23 22 22 22 22 22
28 28 27 27 27 27 26 26 26 26 26 26 27 27 27 27 27 27 27 27 27 27 27 27 27 27 27 27 27 27 27 27 26 26 26 26 26 25 25 25 25 25 25 25 25 25 25 25 25 25 25 25 25 25 25 25 24 24 24 24 24 24 24 24 23 23 23 23 22 23 23 23 24 24 24 24 23 23 23 23 22 22 22 22 22
28 28 28 27 27 27 27 27 27 27 27 27 27 27 27 28 28 28 27 27 27 28 28 27 27 27 27 27 27 27 27 27 27 26 26 26 26 26 26 25 25 25 25 25 25 25 25 25 25 25 25 25 25 25 25 25 25 24 24 24 24 24 23 23 23 23 22 22 22 22 22 22 23 23 23 23 23 23 23 23 22 22 22 22 22
29 29 28 28 28 27 27 27 27 27 27 27 27 27 27 28 28 28 28 28 28 28 28 28 28 27 27 27 27 27 27 27 27 27 27 26 26 26 26 26 25 25 25 25 25 25 25 25 25 25 25 25 25 25 25 25 25 25 25 24 24 24 23 23 23 23 22 22 22 22 21 22 22 23 23 23 23 23 23 22 22 22 22 21 21
29 29 29 28 28 28 28 27 27 27 27 27 27 27 28 28 28 28 28 28 28 28 28 28 28 28 27 27 27 27 27 27 27 27 27 27 26 26 26 26 26 25 25 25 25 25 25 25 25 25 25 25 25 25 25 25 25 25 25 25 25 24 24 23 23 23 22 22 22 22 21 21 22 22 23 23 23 23 23 22 22 22 21 20 20
30 29 29 29 28 28 28 28 28 27 27 27 27 27 28 28 28 28 28 28 28 28 28 28 28 28 28 27 27 27 27 27 27 27 27 27 27 26 26 26 26 26 25 25 25 25 25 25 25 25 25 25 25 25 25 25 25 25 25 25 25 25 25 24 24 23 23 22 22 22 22 22 22 22 22 22 22 22 22 22 22 22 21 21 20
30 30 30 29 29 28 28 28 28 28 28 28 27 27 28 28 28 28 28 28 28 28 28 28 28 28 28 28 27 27 27 27 27 27 27 27 27 27 26 26 26 26 26 26 25 25 25 25 25 25 25 25 25 25 25 25 25 25 25 25 25 25 25 25 25 24 24 23 23 22 23 22 22 22 23 23 22 22 22 22 22 22 21 21 21
31 30 30 29 29 29 28 28 28 28 28 28 28 28 27 28 28 28 29 29 28 28 28 28 28 28 28 28 28 28 28 27 27 27 27 27 27 27 27 26 26 26 26 26 26 26 26 25 25 25 26 25 25 25 25 25 25 25 25 24 24 24 24 24 25 24 24 24 23 23 24 23 23 23 23 23 23 22 22 22 22 22 22 22 22
31 30 30 30 29 29 29 28 28 28 28 28 28 28 28 28 28 28 29 29 29 29 28 28 28 28 29 29 28 28 28 28 28 27 27 27 27 27 27 26 26 26 26 26 26 26 26 26 26 26 26 26 26 25 25 25 25 24 24 24 24 24 24 24 24 24 24 24 24 24 24 24 24 24 23 23 23 23 23 23 23 22 22 22 22
32 31 30 30 29 29 29 28 28 28 28 28 28 28 28 28 28 28 28 29 29 29 29 29 29 28 29 29 29 28 28 28 28 28 28 27 27 27 27 26 26 26 26 26 26 26 26 26 26 26 26 26 26 26 26 25 25 24 24 24 24 24 24 24 25 24 24 24 24 24 24 24 24 24 24 23 23 23 23 23 23 22 22 21 21
32 31 30 30 30 29 29 29 28 28 28 28 28 28 28 28 28 28 28 29 29 29 29 29 29 29 29 29 29 29 28 28 28 28 28 28 27 27 26 26 26 26 26 26 26 26 26 26 26 26 26 26 26 26 26 26 25 25 24 24 23 23 23 24 24 24 24 24 24 24 24 24 24 24 24 23 23 23 23 22 22 22 21 20 20
31 31 31 30 30 30 29 29 29 28 28 28 28 28 28 28 28 28 28 28 29 29 29 29 29 29 29 29 29 29 29 29 29 28 28 28 27 27 26 26 25 25 25 26 26 26 26 26 26 26 26 26 26 26 26 26 25 25 24 24 23 23 24 24 23 23 23 23 24 24 24 24 24 24 24 24 23 23 23 22 22 22 21 21 20
31 31 31 31 30 30 29 29 29 29 28 28 28 28 28 28 28 28 28 28 29 29 29 29 29 29 29 29 29 29 29 29 29 29 28 28 28 27 27 26 25 25 25 25 26 26 26 26 26 26 26 26 26 26 26 26 26 25 25 24 24 24 24 24 23 23 23 23 23 23 23 23 23 23 24 23 23 23 23 23 23 22 21 21 21
32 31 31 31 30 30 30 29 29 29 29 28 28 28 28 28 28 28 28 28 28 29 29 29 29 29 29 29 29 29 29 29 29 29 29 28 28 28 27 25 25 25 25 25 25 25 26 26 26 26 26 26 26 26 26 26 26 26 25 25 24 24 25 24 24 24 24 23 23 23 23 23 23 23 23 23 23 23 23 23 23 23 22 22 21
32 32 31 31 30 30 30 29 29 29 29 29 28 28 28 28 28 28 28 28 28 28 29 29 29 29 29 29 29 29 29 29 28 28 28 28 28 28 27 26 25 25 25 25 25 25 25 25 26 26 26 26 26 26 26 26 26 26 25 25 25 25 25 25 24 24 24 24 23 23 22 22 22 22 22 22 23 23 23 23 23 23 23 22 21
32 32 31 31 31 30 30 29 29 29 29 29 28 28 28 28 28 28 28 28 28 28 28 28 28 28 29 29 29 29 29 29 28 28 28 28 28 28 28 27 27 26 25 25 25 25 25 25 26 26 26 26 26 26 26 26 26 26 26 26 26 26 25 25 25 24 24 24 23 23 22 22 22 22 22 22 22 22 22 23 23 23 23 23 22
32 32 31 31 31 30 30 29 29 29 29 29 28 28 28 28 28 28 28 28 28 28 28 28 28 28 28 28 28 28 29 29 29 28 28 28 28 28 28 28 28 27 26 26 26 26 26 26 26 26 26 26 26 26 26 26 26 26 26 26 26 26 25 25 24 24 23 23 23 23 22 22 22 21 22 22 22 22 22 22 23 23 23 23 23
32 32 31 31 30 30 29 29 29 29 29 29 28 28 28 28 28 28 28 28 27 27 27 27 28 28 28 28 28 28 28 28 28 28 28 28 28 28 28 28 28 28 27 26 26 26 26 26 25 26 25 25 25 26 25 26 26 26 26 26 26 26 25 24 23 23 23 23 22 22 22 22 22 21 22 22 21 21 22 22 22 22 22 22 22
31 31 31 31 30 30 29 29 29 29 29 28 28 28 28 28 28 28 28 27 27 27 27 27 27 27 27 28 28 28 28 28 28 28 28 28 28 28 28 28 27 27 26 26 25 25 25 25 25 25 25 24 24 24 24 25 25 25 25 24 24 24 24 23 22 22 22 21 21 20 21 21 21 21 21 21 21 21 21 21 21 22 22 22 22
31 30 30 30 30 29 29 29 29 29 29 28 28 28 28 28 27 27 27 27 27 27 27 27 27 27 27 27 28 28 28 27 27 27 26 26 26 26 26 26 26 25 25 25 25 24 24 24 24 24 24 24 24 24 24 24 24 24 24 23 23 23 22 21 21 21 21 20 18 18 19 20 21 21 21 21 20 20 21 21 21 21 21 21 21
30 30 29 29 29 29 29 29 28 28 28 28 28 28 28 28 27 27 27 27 27 27 27 27 27 27 27 27 28 27 26 25 25 25 25 25 25 25 25 25 25 24 24 24 24 24 24 24 24 24 24 24 24 24 24 24 24 23 23 23 23 23 22 21 21 21 20 19 18 18 19 19 20 20 21 20 20 20 21 21 20 20 20 20 20
29 29 29 29 29 29 29 29 29 28 28 28 28 28 28 28 28 27 27 27 27 27 27 27 27 27 27 27 27 25 24 24 24 24 25 25 25 25 25 25 25 24 24 24 24 24 24 24 24 24 24 24 24 23 23 23 23 22 22 22 22 22 22 21 20 20 20 19 18 18 18 18 19 19 20 20 20 20 20 20 20 19 19 20 19
29 29 29 29 29 29 29 29 28 28 27 26 26 25 26 27 27 27 27 27 27 27 27 27 27 27 27 26 25 24 23 24 24 24 25 25 25 25 24 24 24 24 24 24 24 24 24 23 23 23 23 22 21 20 20 20 20 21 21 21 21 21 21 20 19 19 19 19 19 18 18 18 18 18 19 19 20 20 20 20 19 19 18 19 19
29 29 29 29 29 29 29 28 27 27 26 25 24 23 24 25 26 26 27 27 28 28 28 27 27 27 26 25 25 25 24 24 24 24 24 25 25 24 24 24 23 23 23 22 22 22 21 21 20 20 19 19 18 18 18 18 18 19 19 19 19 20 20 20 20 19 19 19 19 19 19 18 18 18 19 19 20 20 20 19 19 19 18 18 18
28 28 28 28 29 29 28 27 25 25 25 25 24 23 22 23 24 25 25 26 27 27 27 26 26 26 26 25 24 24 24 24 24 24 24 24 24 23 23 23 23 22 22 21 20 19 19 18 18 18 17 17 17 17 17 17 17 17 17 17 17 18 18 18 19 19 19 19 19 19 19 19 19 18 18 19 19 19 19 19 18 18 18 18 17
26 26 27 27 27 27 26 25 24 24 23 23 24 24 22 21 21 22 23 24 25 25 25 24 24 25 25 24 24 23 23 23 23 23 23 23 22 22 22 22 21 21 20 19 19 18 17 17 17 17 17 16 16 16 16 16 16 16 16 16 16 16 16 17 17 17 18 18 18 18 18 19 19 19 19 19 19 19 18 18 18 18 18 17 17
25 25 25 25 25 25 25 24 23 23 22 22 22 23 22 20 19 19 21 22 23 23 23 23 23 23 23 23 23 23 22 22 22 22 22 21 21 21 21 21 20 19 19 19 18 18 18 17 17 17 17 17 17 17 16 16 16 16 16 16 16 16 16 16 16 16 16 17 17 17 18 18 18 19 19 19 18 18 17 17 17 17 17 17 17
25 25 25 25 25 25 24 24 23 22 22 22 22 21 21 21 20 19 19 19 20 21 21 22 22 22 22 22 22 22 22 21 21 21 21 20 20 20 20 20 19 18 18 18 18 18 18 18 17 17 17 17 17 17 16 16 16 16 16 16 16 16 16 16 16 16 16 16 16 17 17 18 18 18 18 18 18 18 17 17 17 17 17 17 16
24 24 25 25 25 25 25 24 24 23 23 22 22 22 21 21 21 21 20 20 19 19 19 20 21 21 22 22 21 22 22 21 21 21 20 20 20 20 20 19 18 18 18 18 18 18 17 17 17 17 17 17 16 16 16 16 16 16 16 16 16 16 16 16 16 16 16 16 16 17 17 17 18 18 18 18 18 17 17 17 17 17 17 17 16
24 24 24 25 25 25 25 25 25 25 24 23 23 22 22 22 22 22 21 21 19 18 19 20 21 21 21 21 21 21 21 21 21 21 20 20 20 20 20 19 18 18 18 18 17 17 17 17 17 17 16 16 16 16 16 16 16 16 16 16 16 16 16 16 16 16 16 17 17 17 17 17 17 18 18 18 17 17 17 17 17 17 17 16 16
24 24 24 24 24 24 25 25 25 25 25 24 23 23 23 23 23 23 22 21 20 19 19 20 21 21 21 21 21 21 21 21 21 21 20 20 20 20 19 19 19 18 18 17 17 17 17 17 16 16 16 16 16 16 16 16 16 16 16 16 16 16 16 16 16 16 16 16 16 16 17 17 17 17 17 17 17 16 16 16 16 16 16 16 16
24 24 24 24 24 24 24 24 25 25 24 24 24 24 24 24 24 23 22 21 21 20 20 20 21 21 21 21 21 21 20 20 20 20 20 20 20 19 19 19 18 18 18 17 17 17 17 16 16 16 16 16 16 16 16 16 16 16 16 16 16 16 16 17 18 18 17 17 18 18 17 16 16 16 16 16 16 16 16 16 16 15 15 16 16
24 24 24 24 24 24 24 24 24 24 24 24 23 23 23 23 23 23 23 22 21 21 20 20 20 20 20 20 20 20 20 20 20 20 20 20 20 19 19 19 18 18 17 17 17 17 16 16 16 16 16 16 16 16 16 16 16 16 17 17 16 16 16 16 17 17 16 16 18 19 19 17 17 16 16 16 15 15 16 16 16 16 16 16 16
24 24 24 24 24 24 23 23 23 23 23 23 23 23 23 23 23 23 23 23 22 21 21 20 20 20 20 20 20 20 20 20 20 20 20 20 19 19 19 19 18 18 17 17 17 17 16 16 16 16 16 16 17 17 17 17 17 17 17 17 16 16 16 16 16 16 16 16 16 17 17 18 18 17 17 16 16 16 16 16 17 17 16 16 16
23 23 23 23 23 23 23 22 22 22 22 22 22 22 22 22 22 22 22 22 22 21 21 20 20 20 20 20 20 20 20 20 20 20 20 20 19 19 19 18 18 18 17 17 17 17 16 16 16 16 16 16 17 17 17 17 17 17 17 17 17 16 16 15 15 16 16 16 16 16 16 17 17 17 16 17 18 18 17 17 17 17 16 16 16
21 21 21 21 21 21 21 21 20 20 20 19 19 19 19 19 19 19 19 20 20 20 20 20 20 20 20 20 20 20 20 20 20 20 20 19 19 19 18 18 18 17 17 17 17 17 16 16 16 16 16 16 16 17 17 17 17 17 17 17 17 17 16 16 16 15 16 16 16 16 16 16 17 16 16 16 17 17 17 17 17 16 16 16 16
19 18 18 18 18 18 18 18 18 17 17 17 16 16 16 16 17 17 17 17 18 18 18 18 18 19 19 19 19 19 19 19 19 19 19 19 19 19 18 18 17 17 17 17 17 16 16 16 16 16 16 16 16 16 16 16 17 17 17 17 17 17 17 17 16 16 16 16 16 16 16 16 16 16 16 16 16 16 16 16 16 16 16 16 16
17 17 17 17 16 16 16 16 16 16 15 15 15 14 14 14 14 14 14 15 15 15 15 15 15 16 16 16 17 17 17 18 18 18 18 18 18 18 18 17 17 17 17 16 16 16 16 16 16 16 16 16 16 16 16 16 17 17 17 17 17 17 17 17 17 17 17 17 17 17 16 16 16 16 16 16 16 16 16 16 16 16 16 16 16
16 16 16 15 15 15 14 14 14 14 13 13 13 13 13 12 12 12 12 12 12 12 12 12 12 13 13 13 14 14 15 15 16 16 16 17 17 18 17 17 16 16 16 16 16 16 16 16 16 16 16 16 16 16 16 16 17 17 17 17 17 17 17 17 17 17 17 17 17 17 17 17 17 16 16 17 17 17 17 16 16 16 16 16 17
15 15 15 14 14 13 13 13 12 12 12 12 11 11 11 11 11 11 10 10 10 10 10 10 10 10 10 11 11 12 12 13 13 14 14 15 15 16 16 16 16 16 16 16 15 16 16 16 16 16 16 16 16 16 16 16 16 16 17 17 17 17 17 17 17 17 17 17 17 17 17 17 17 17 17 17 17 17 17 17 17 17 17 17 17
14 14 14 13 13 13 12 12 11 11 11 11 11 10 10 10 10 10 9 9 9 9 8 8 8 8 9 9 9 9 10 11 11 12 12 13 14 15 15 15 16 16 16 16 15 16 16 16 16 16 16 16 16 16 16 16 16 16 16 16 16 16 17 17 17 17 17 17 17 17 17 17 17 17 17 17 17 17 17 17 17 17 17 17 17
13 13 13 12 12 12 11 11 11 11 10 10 10 10 10 9 9 9 9 8 8 8 7 7 7 7 7 7 8 8 8 9 10 10 10 11 13 14 14 15 15 15 15 16 16 16 16 16 16 16 16 16 16 16 16 16 16 16 16 16 16 16 17 17 17 17 17 17 17 17 17 17 17 17 17 17 18 18 18 18 18 18 18 18 18
13 12 12 12 11 11 11 10 10 10 10 10 9 9 9 9 9 8 8 8 8 7 7 7 6 6 6 6 7 7 7 8 8 8 9 10 11 13 14 14 14 14 15 15 15 15 16 16 15 15 15 15 15 15 15 16 16 16 16 16 16 16 16 17 17 17 17 17 17 17 17 17 18 17 17 18 18 18 18 18 18 18 18 18 18
13 12 12 11 11 10 10 10 10 9 9 9 9 9 9 9 9 8 8 8 7 7 7 6 6 6 6 6 6 6 6 6 6 7 7 8 9 11 12 13 14 14 14 14 15 15 15 15 15 15 15 15 15 15 15 15 15 16 16 16 16 16 16 16 16 17 17 17 17 17 17 17 17 17 17 17 18 18 18 18 18 18 18 18 18
13 12 12 11 11 11 10 10 10 9 9 9 9 9 9 9 8 8 8 7 7 7 6 6 6 5 5 5 5 5 5 5 5 6 6 7 8 9 10 11 12 12 13 13 14 14 14 14 14 14 15 15 15 15 15 15 15 15 15 15 16 16 16 16 16 16 16 16 17 17 17 17 17 17 17 17 17 17 17 17 17 17 17 17 17
Height
755 757 759 761 763 765 767 770 772 776 778 781 783 784 787 789 791 794 796 799 801 803 805 807 808 810 812 813 814 816 817 819 821 822 824 825 826 828 829 830 831 831 833 834 835 836 838 838 839 840 841 842 843 843 844 845 845 846 846 846 846 847 848 848 848 848 848 849 848 848 848 848 848 849 850 851 851 852 852 852 853 853 854 854 855
748 752 754 757 759 761 764 766 769 772 775 778 779 781 783 786 788 791 793 796 798 800 802 803 805 807 809 810 811 813 814 816 817 819 820 822 823 825 826 827 828 829 831 832 833 834 835 836 837 838 839 840 840 841 841 842 842 843 843 843 843 844 844 845 845 845 845 845 846 846 845 845 846 847 848 848 848 849 849 850 850 851 851 851 852
743 748 751 754 756 758 761 764 767 770 772 774 775 778 780 782 785 788 790 792 794 796 799 800 802 804 806 807 809 810 811 812 814 815 816 818 820 821 823 824 825 826 828 829 830 832 833 834 834 835 836 837 837 838 838 839 839 839 839 839 840 840 841 842 842 842 842 842 843 843 843 843 843 844 844 845 846 846 846 847 847 848 848 849 849
740 745 748 750 753 757 760 762 765 768 770 771 773 775 777 779 782 784 786 789 791 793 795 797 799 801 802 804 805 807 808 809 811 812 813 814 816 817 819 821 822 823 824 825 827 829 830 830 831 832 834 834 834 834 834 835 835 835 835 836 836 836 838 839 839 839 839 839 839 840 840 840 840 841 842 842 843 843 843 844 844 845 845 846 846
736 740 743 747 750 753 756 759 762 764 766 768 769 772 774 776 779 781 783 785 787 789 791 794 796 797 799 800 801 803 805 806 807 808 810 811 813 814 816 817 818 819 820 822 823 824 825 826 827 829 830 831 831 831 831 831 831 831 831 831 832 833 834 835 836 836 836 836 836 837 837 838 837 838 839 839 840 840 840 841 841 842 842 843 843
733 736 740 743 746 749 752 754 757 759 762 764 766 768 771 773 775 777 780 782 784 786 788 790 792 793 795 796 798 800 801 803 803 804 806 808 809 811 812 814 815 816 817 818 819 820 821 822 823 825 826 826 826 826 826 826 826 827 827 827 828 829 830 831 832 832 833 832 833 834 834 835 835 834 835 835 836 836 837 838 838 838 839 839 840
729 733 736 739 742 744 746 749 751 753 756 759 762 764 767 769 771 773 776 778 780 782 784 786 787 789 791 793 794 796 797 799 800 801 803 804 806 807 808 810 811 812 813 814 815 816 817 818 819 820 821 821 821 821 821 822 822 822 822 823 825 826 826 827 828 828 829 829 830 830 831 831 831 831 832 832 833 833 833 834 834 834 835 835 836
725 728 731 734 736 738 741 744 746 748 751 754 757 760 762 765 767 770 772 774 776 778 780 782 783 785 787 789 790 792 794 795 796 798 799 800 802 803 804 806 807 808 809 810 811 812 813 814 814 814 815 815 815 815 816 816 817 818 819 820 822 822 822 823 824 824 825 825 826 826 827 828 828 829 830 830 829 828 828 829 829 830 831 832 832
720 723 726 728 731 734 737 740 742 745 748 750 752 755 757 760 763 765 767 769 771 774 775 777 779 781 783 785 787 788 790 790 791 793 794 796 798 799 800 801 802 804 805 806 807 808 808 809 809 809 809 808 809 810 810 811 812 813 814 816 818 818 818 819 820 821 822 822 822 823 824 824 824 825 825 824 822 822 824 825 826 827 828 829 830
715 718 721 723 726 730 733 736 739 741 743 745 748 750 753 756 758 760 762 764 766 769 771 774 775 777 779 781 783 784 785 786 787 788 789 791 793 794 796 797 798 799 800 801 802 803 803 803 803 803 804 804 805 805 806 807 807 808 809 811 813 814 814 816 816 816 817 818 818 819 820 818 818 819 818 817 818 820 821 822 823 824 826 827 827
709 713 715 718 722 726 729 732 735 737 739 741 743 746 749 751 753 755 757 759 761 764 767 769 771 772 775 776 778 779 780 781 782 784 785 787 789 790 791 792 793 794 795 796 797 797 798 799 799 799 800 800 801 801 802 803 803 804 806 807 807 808 809 810 811 811 813 813 813 814 814 812 811 812 813 814 815 817 817 818 820 821 823 823 823
705 708 710 714 718 721 724 728 730 733 735 737 739 741 744 747 749 751 753 755 757 760 762 764 766 769 770 772 773 774 775 776 777 779 781 783 785 786 787 788 789 790 790 791 791 793 794 794 795 795 795 795 796 797 798 799 800 800 801 802 802 803 804 804 804 805 807 808 808 808 807 806 806 808 808 809 811 813 814 815 816 817 818 818 818
701 704 707 711 713 716 720 723 725 728 730 733 736 738 741 743 744 747 749 751 754 756 757 760 762 765 766 766 768 769 770 771 772 775 777 778 781 782 783 784 785 785 786 786 787 788 789 790 790 790 790 791 792 793 794 795 796 797 797 798 798 798 799 799 797 798 800 801 801 799 799 800 801 800 801 804 807 809 810 811 812 813 814 814 813
698 700 703 706 709 712 716 718 721 724 726 730 733 735 737 739 741 743 746 748 750 752 754 756 758 760 761 762 763 764 765 766 767 770 772 774 776 778 779 780 781 782 782 783 783 784 784 785 785 784 785 786 787 788 789 790 791 791 792 792 792 793 794 793 792 794 795 795 794 792 792 794 794 793 795 799 801 802 803 804 806 807 808 808 808
694 696 699 702 705 708 711 713 716 719 722 726 728 731 733 735 737 740 742 744 746 747 750 751 753 755 756 757 758 759 760 761 763 765 766 769 771 774 775 777 777 778 778 779 780 780 781 781 781 780 780 781 781 783 784 785 786 786 786 786 786 787 787 785 785 786 788 788 787 786 786 788 788 788 791 794 794 795 796 798 800 801 802 804 805
690 693 695 698 701 704 706 709 712 715 719 722 724 726 729 731 734 736 738 740 742 744 746 747 748 749 751 753 754 754 755 756 758 759 761 764 767 770 772 773 773 774 774 775 776 777 777 778 777 777 776 776 777 778 779 781 782 781 781 781 782 782 780 776 776 778 780 780 780 780 780 782 783 784 786 788 789 791 794 796 796 798 799 800 801
686 689 691 693 696 699 702 706 708 712 715 717 719 722 725 727 730 733 735 737 738 740 741 742 743 745 747 749 750 750 751 752 753 755 757 760 763 766 767 768 769 769 770 772 774 773 773 773 773 773 772 772 773 774 776 778 778 778 778 777 778 777 771 768 771 774 775 775 775 774 775 777 779 780 782 783 784 787 790 790 790 792 794 795 795
683 685 687 689 693 696 699 702 705 708 710 712 715 718 721 724 726 729 731 733 734 735 736 738 740 741 743 744 744 745 747 748 749 751 753 757 760 762 763 765 765 765 767 769 770 769 768 768 768 769 768 768 770 772 774 775 775 774 773 773 775 771 763 763 769 771 770 771 771 771 772 773 774 775 776 777 779 781 782 780 782 785 787 787 789
679 682 684 687 690 693 695 698 701 703 706 709 712 715 718 720 723 725 728 729 731 732 734 735 736 737 739 740 741 742 743 744 747 749 751 754 757 758 760 761 761 762 764 765 765 764 763 764 765 765 765 766 768 768 770 771 770 769 770 771 770 761 755 761 767 767 765 766 765 766 766 767 769 770 770 771 773 775 774 774 776 779 779 780 783
677 680 683 685 687 690 692 695 697 700 703 706 709 712 715 717 720 722 724 726 728 730 731 732 733 734 735 737 738 739 740 742 745 747 750 752 754 756 757 757 756 758 760 760 760 759 759 760 761 762 763 763 764 765 765 766 765 765 766 765 760 753 753 760 762 761 761 760 758 758 759 761 763 764 765 766 767 767 768 769 771 772 772 774 776
676 679 681 682 685 687 689 692 694 697 701 704 707 709 712 714 717 719 721 724 726 727 729 730 731 732 733 734 735 736 738 740 743 745 748 750 751 753 753 752 753 755 756 756 756 755 756 757 758 758 759 759 760 761 761 761 761 760 759 756 752 750 754 757 756 755 756 753 751 752 753 755 757 758 759 759 759 760 762 764 766 767 767 768 769
674 676 678 680 682 684 687 689 692 695 698 701 704 706 709 712 714 716 719 721 722 724 726 727 729 730 731 732 733 734 736 738 741 743 745 746 748 749 748 748 750 752 753 752 752 752 753 754 754 754 755 755 755 756 756 756 756 754 752 750 749 750 751 751 749 749 748 745 744 746 747 748 750 751 752 753 754 755 757 759 761 762 762 762 763
671 673 676 678 680 682 684 687 690 693 696 698 701 703 706 709 711 714 716 718 720 721 723 725 727 728 728 729 730 732 734 736 738 740 741 742 743 744 744 745 747 748 748 747 747 748 749 749 749 750 750 750 750 751 751 750 749 748 747 747 746 746 746 744 743 742 740 738 738 739 740 742 743 744 747 748 750 752 754 755 757 757 758 758 759
669 671 673 675 677 680 682 684 687 690 693 696 698 701 704 706 708 711 713 715 717 718 720 722 724 725 727 727 728 730 732 734 736 736 736 737 738 739 740 741 743 744 744 743 744 745 746 746 746 747 747 747 747 746 746 745 744 743 742 742 741 740 739 737 735 735 734 733 733 736 737 739 740 741 742 742 744 749 751 752 752 752 753 754 756
667 669 671 673 675 678 680 683 685 688 690 693 696 698 701 703 706 708 710 712 714 715 717 720 721 723 725 726 727 729 731 732 732 732 732 733 734 736 737 738 740 740 740 740 741 742 743 743 744 744 744 744 744 743 742 741 740 740 739 738 737 735 733 731 729 728 727 728 732 737 738 739 740 740 739 738 740 744 745 745 745 746 748 750 753
666 668 670 672 674 676 679 681 684 686 689 691 693 696 699 701 703 705 707 709 711 713 715 717 719 721 722 724 726 728 729 729 728 729 729 731 732 734 735 736 737 738 738 738 739 740 740 741 741 741 741 741 740 739 738 736 736 735 734 733 732 729 727 726 725 723 722 724 730 735 735 735 733 731 730 730 730 730 731 732 734 736 740 744 748
665 667 669 671 673 675 677 680 682 685 688 690 692 695 696 698 701 703 704 706 708 711 713 715 717 719 721 723 725 726 726 726 727 728 729 730 731 732 733 734 735 736 736 737 737 737 738 738 738 738 737 736 736 735 733 732 731 729 728 727 724 721 720 719 718 717 717 719 722 725 726 726 724 720 719 718 716 716 718 721 723 725 729 734 738
665 666 668 670 672 674 676 679 681 684 686 689 691 693 694 697 699 700 702 704 706 709 711 713 715 717 718 721 723 724 725 726 726 727 728 729 730 731 732 733 733 734 734 735 735 735 736 735 735 734 733 732 731 730 729 728 726 725 723 721 718 716 714 712 711 711 711 711 711 711 712 712 710 709 710 710 708 708 711 713 714 716 720 725 730
665 666 668 670 672 674 676 678 680 682 684 687 689 691 693 695 697 698 701 703 705 707 709 711 713 715 717 719 720 721 724 725 726 727 728 728 729 730 730 731 732 732 732 733 733 733 733 733 732 732 731 730 729 727 726 724 722 721 719 717 716 713 711 708 706 704 703 704 703 701 700 700 700 700 701 701 699 700 702 705 707 710 713 717 719
666 667 668 670 671 673 675 677 678 680 683 685 688 691 693 695 696 698 700 702 704 706 708 710 712 713 715 718 720 721 722 724 725 726 727 728 728 729 729 730 731 731 731 731 732 732 732 731 731 730 730 729 728 726 725 723 721 718 716 714 713 711 707 704 701 698 697 697 695 693 692 692 691 691 690 689 688 690 693 694 695 699 703 707 710
667 667 668 670 671 672 674 676 677 680 682 684 687 690 693 696 698 699 700 702 703 706 708 710 712 713 714 717 719 721 722 724 725 726 727 727 728 728 729 729 729 730 730 730 730 731 730 730 730 729 729 728 727 725 724 722 719 717 714 711 709 707 704 700 697 695 692 690 688 686 685 684 682 680 678 676 676 679 682 684 687 689 692 696 701
667 668 669 670 671 672 674 675 677 680 682 684 687 689 692 696 700 703 704 704 705 707 710 712 714 715 716 717 719 721 723 724 725 725 726 727 727 727 728 728 728 728 729 729 729 729 729 729 728 727 727 726 725 723 722 720 717 715 712 708 705 702 699 695 692 690 687 684 682 679 676 674 672 669 666 663 663 665 667 670 675 679 684 690 696
669 670 671 671 672 674 675 677 679 682 683 685 687 689 691 695 699 704 706 707 709 711 713 715 716 717 718 720 720 721 723 724 725 725 726 726 727 726 726 727 727 727 728 728 727 727 727 727 726 726 725 724 722 721 719 717 714 712 709 706 701 696 693 689 686 683 680 677 675 672 668 666 663 659 656 655 655 656 657 660 664 670 677 684 692
671 672 673 673 674 676 677 679 681 684 686 687 689 691 693 695 698 702 706 709 711 713 715 717 718 719 720 721 722 723 723 724 725 725 726 726 726 726 726 726 727 727 727 726 726 725 725 725 725 724 723 722 721 719 716 714 711 708 705 702 697 692 687 683 680 676 672 669 667 664 661 659 656 652 650 647 645 645 645 648 653 661 670 679 687
674 675 676 676 676 678 680 681 683 686 688 690 691 693 695 697 699 703 706 708 712 714 716 718 719 720 721 722 723 723 724 725 725 725 725 726 726 727 726 726 726 726 726 726 726 726 726 726 724 723 722 720 719 717 714 711 708 705 702 698 693 688 683 678 674 669 666 663 660 656 653 651 649 647 645 643 641 640 640 641 645 653 664 673 680
676 677 679 679 679 681 682 683 685 688 690 692 693 695 697 699 701 704 707 709 712 714 717 718 719 721 722 722 723 724 724 724 725 725 726 726 726 726 725 725 725 726 727 728 728 727 727 725 724 722 721 719 716 714 711 709 706 703 699 696 691 685 680 675 670 664 661 657 653 648 646 644 642 639 637 635 634 634 638 643 648 655 665 672 677
679 680 681 682 683 683 685 686 687 690 692 694 696 698 699 700 701 704 707 711 712 714 717 718 719 720 721 722 723 724 724 725 726 726 726 726 725 724 724 725 726 727 727 728 727 726 725 723 722 721 719 717 714 712 710 707 704 701 697 693 689 683 678 673 667 662 657 652 647 643 639 635 632 630 630 630 632 635 641 649 655 658 664 674 684
683 683 684 685 685 686 688 689 690 691 694 696 698 699 700 700 702 705 709 711 713 715 717 718 719 721 722 723 724 725 725 726 726 725 725 725 725 725 726 727 728 728 727 727 726 724 723 722 721 719 718 715 713 710 708 706 703 699 695 691 687 682 678 673 667 661 654 648 643 639 636 632 631 631 630 632 637 643 650 658 665 666 669 679 692
685 686 687 687 688 689 689 690 692 694 696 698 699 700 701 702 704 707 710 712 714 716 718 719 721 723 724 724 724 724 724 724 724 725 725 726 726 727 728 728 728 728 727 725 724 723 722 721 720 718 716 714 712 709 707 705 702 698 694 690 687 684 680 675 670 664 658 652 645 639 635 634 637 641 642 644 649 653 655 662 672 679 684 691 700
688 689 690 690 690 691 692 693 695 697 698 700 701 702 704 706 707 710 712 714 715 717 719 721 723 723 724 724 723 723 723 724 724 725 726 726 727 728 728 728 728 727 725 724 723 722 721 720 719 717 715 713 711 708 706 704 701 698 694 691 689 686 683 679 674 669 664 659 654 649 643 640 641 645 649 653 659 663 665 670 678 686 693 700 705
691 692 692 693 694 695 695 697 699 700 701 703 704 705 707 709 711 713 715 715 717 718 720 721 722 723 723 723 723 723 724 724 725 726 726 727 727 728 727 727 726 725 723 722 722 721 720 719 718 716 714 712 710 707 705 703 700 698 695 692 690 688 686 682 678 674 669 665 662 659 656 652 650 652 654 657 661 666 671 678 685 692 698 703 708
694 695 695 696 697 698 699 701 703 704 705 706 708 709 711 712 714 716 716 717 719 720 721 722 723 723 724 724 724 725 725 725 726 727 727 727 727 727 726 725 724 723 722 721 721 720 719 718 717 715 713 711 709 706 704 702 700 698 696 694 691 689 688 686 682 679 675 672 669 666 663 661 660 662 664 666 668 671 676 682 688 694 699 704 709
697 698 699 699 700 701 703 705 706 708 710 711 713 714 715 716 717 718 719 720 721 722 723 724 724 725 726 726 726 726 727 727 727 728 727 727 726 725 724 723 723 722 722 721 720 719 718 717 716 714 712 711 709 706 704 702 700 699 697 695 693 691 689 688 686 683 680 678 677 675 672 669 668 670 672 674 676 678 681 685 690 696 701 706 710
700 701 702 703 705 706 708 709 711 713 714 715 716 718 719 719 721 721 722 723 724 725 725 726 726 726 727 727 727 727 728 728 728 728 726 725 724 723 723 723 723 722 721 720 719 718 717 716 715 714 713 711 709 707 705 703 701 700 698 697 695 693 691 690 689 687 684 683 682 681 680 677 676 676 679 681 683 685 688 691 695 699 703 707 711
704 705 706 707 709 711 712 714 715 716 717 718 720 721 723 723 724 725 725 726 727 727 728 728 728 728 729 729 729 729 729 729 728 727 725 724 724 724 724 724 723 722 721 720 718 717 716 715 714 714 713 711 710 708 706 704 702 701 699 698 697 695 693 692 691 690 688 686 685 685 684 684 683 683 684 686 688 690 693 696 699 702 705 709 712
708 709 710 712 714 715 716 718 719 719 720 722 723 725 726 727 727 728 729 729 730 730 731 731 731 731 731 731 731 731 730 729 728 727 726 725 725 726 725 724 723 722 721 720 718 717 715 715 714 714 713 712 711 709 708 705 703 702 700 699 698 697 696 695 694 692 691 689 688 688 688 688 688 689 689 691 692 694 696 699 702 704 706 709 711
712 713 715 716 718 719 720 721 722 722 724 725 727 728 729 730 730 731 732 732 733 734 734 735 735 735 734 734 734 732 731 730 729 729 728 727 726 726 725 724 723 722 721 720 719 717 716 715 715 715 714 713 712 711 709 707 705 703 702 701 700 700 698 697 696 695 694 693 692 692 692 691 692 693 694 695 696 698 699 702 704 705 707 709 711
716 717 719 720 721 722 724 725 725 726 728 729 730 732 733 734 734 735 736 737 738 738 739 739 739 738 737 737 736 734 733 732 731 731 730 729 727 725 724 724 723 723 722 721 720 718 717 717 717 716 715 714 713 712 711 709 707 705 704 703 703 702 701 700 699 697 696 696 695 695 695 695 695 696 697 698 699 700 702 704 705 707 708 710 712
720 722 723 724 726 727 728 729 730 732 733 734 736 737 738 739 740 740 741 742 742 742 742 742 741 740 740 739 738 737 736 735 734 733 732 729 727 725 724 723 723 723 723 722 721 720 719 719 718 717 716 716 715 714 712 711 709 708 707 706 705 705 704 703 702 701 700 699 698 698 698 698 699 699 700 701 702 703 704 706 707 709 710 712 713
726 727 728 729 730 732 734 734 735 737 738 739 740 741 742 743 744 744 745 745 745 745 745 744 744 743 743 742 742 741 740 739 738 736 733 730 727 725 724 724 724 723 723 722 722 721 720 720 719 718 717 716 716 715 714 713 712 711 710 709 708 708 707 706 705 704 704 703 702 702 702 702 702 703 704 705 706 707 707 708 710 711 712 713 714
730 731 733 734 735 737 738 739 740 742 743 743 744 745 746 746 747 747 747 747 747 747 748 748 747 747 747 747 747 746 744 742 740 737 735 732 730 728 726 725 725 724 723 722 721 721 721 721 720 720 718 717 716 715 714 714 713 713 712 712 711 710 709 708 708 707 706 706 706 706 706 706 706 706 707 708 708 709 710 710 711 712 713 714 715
Wind_Speed
40 40 41 42 42 41 42 42 42 41 40 39 39 40 39 37 35 35 35 35 34 33 34 34 34 34 33 33 34 33 33 33 32 31 31 31 30 30 30 30 30 29 28 28 29 28 28 28 27 27 25 24 24 24 23 22 20 20 19 20 21 20 19 18 15 14 17 15 11 13 16 20 26 30 27 24 21 19 19 19 18 18 19 20 19
42 42 42 42 43 43 43 43 42 41 40 40 40 40 40 39 37 35 34 35 35 34 34 34 35 35 35 34 34 34 33 33 33 32 33 33 32 31 31 31 31 30 29 29 30 29 29 29 29 28 27 26 26 25 25 25 24 23 23 23 24 24 23 23 20 16 19 20 16 12 14 19 25 27 27 24 21 21 22 21 21 21 21 21 21
43 42 40 40 42 42 41 41 41 40 39 40 41 40 40 40 38 37 36 35 36 36 35 34 34 35 36 35 34 34 34 34 34 34 34 34 34 33 32 32 32 32 31 31 31 30 29 29 30 30 29 28 28 27 27 27 27 27 26 26 26 27 26 26 24 21 21 23 21 17 18 22 25 25 25 24 22 22 24 23 23 23 23 23 23
42 41 41 40 40 40 39 39 39 39 39 39 40 39 39 39 39 38 38 36 35 36 37 36 34 34 36 37 36 35 35 35 35 35 35 35 35 35 34 33 33 33 33 33 32 31 31 31 31 31 30 30 30 30 29 29 30 30 30 29 29 29 29 28 28 26 23 23 24 23 21 23 25 24 24 25 23 23 24 24 24 24 24 23 22
40 41 41 40 39 39 39 38 38 39 40 39 39 39 38 38 38 38 38 37 36 36 36 37 36 35 36 37 38 37 36 36 36 36 36 36 36 36 35 34 34 33 34 34 34 33 33 33 33 32 31 31 31 32 32 32 32 33 33 32 31 31 31 30 31 30 27 25 26 26 23 22 24 24 24 25 25 24 24 24 24 24 23 22 21
39 40 40 40 39 40 40 40 40 41 41 41 40 39 38 37 37 39 38 38 37 36 36 37 38 38 37 37 37 38 38 37 37 37 36 36 36 36 36 35 35 34 34 34 35 35 35 35 35 33 33 34 34 34 35 35 34 35 35 35 33 32 32 32 32 32 31 29 28 27 26 25 25 25 25 26 27 26 25 24 24 24 24 23 22
38 39 39 39 39 40 41 42 42 43 43 43 41 39 38 37 37 38 39 38 37 36 36 37 38 39 39 39 37 38 38 38 38 38 37 36 36 36 36 36 36 35 35 35 35 36 36 36 36 36 36 36 37 37 37 37 36 36 37 36 34 33 33 33 33 32 32 30 28 28 28 27 27 27 27 27 27 28 27 26 26 26 26 26 25
37 38 39 40 40 41 42 43 43 43 43 43 42 40 39 39 38 37 38 39 38 37 37 38 38 39 39 40 39 38 38 39 39 38 38 37 37 36 36 36 36 36 36 35 35 36 36 37 37 38 39 39 40 40 40 40 38 37 38 36 34 33 34 34 33 32 32 30 28 28 28 27 27 27 27 27 28 29 30 30 29 29 29 28 28
38 38 38 39 41 42 42 42 43 42 42 42 42 41 40 40 39 38 38 40 40 39 38 38 38 39 39 39 40 39 39 39 40 40 39 39 38 37 37 37 36 36 36 36 36 36 37 38 39 40 41 42 43 43 42 42 41 40 39 37 36 34 34 33 32 31 30 28 27 27 26 27 28 27 27 30 33 32 32 31 29 30 30 30 29
37 37 38 39 40 40 41 40 41 41 41 41 42 41 40 40 40 40 40 41 41 41 39 38 37 39 39 38 39 39 39 40 41 42 42 41 40 38 38 38 37 37 36 36 36 37 38 39 40 41 42 43 44 44 44 44 43 43 41 39 39 38 35 33 32 32 30 27 27 27 25 26 30 31 31 33 35 33 30 30 29 28 27 25 27
37 38 38 39 39 39 39 39 39 40 40 40 41 41 41 40 40 40 40 40 41 41 40 39 38 38 38 39 39 39 41 41 41 43 43 43 42 40 39 38 38 38 38 37 38 39 39 39 40 41 42 43 44 45 45 45 46 45 44 42 42 41 39 36 35 34 31 28 29 29 27 28 32 35 34 33 32 32 31 31 30 27 24 21 20
37 38 38 37 38 38 39 39 39 39 40 40 40 41 41 40 40 40 40 40 39 39 40 41 40 38 38 39 40 40 42 43 43 43 44 44 44 42 40 39 38 39 39 39 39 39 38 39 39 40 41 43 44 45 46 46 47 47 46 46 45 45 44 43 41 38 35 33 31 31 32 33 33 34 36 34 33 32 32 32 31 29 27 24 22
34 37 37 37 38 38 39 39 39 39 40 40 40 40 40 40 39 39 39 39 38 38 39 40 40 38 37 38 40 41 42 43 44 44 45 45 46 44 42 40 39 39 39 40 40 39 39 39 38 40 41 41 43 44 45 46 47 48 48 48 48 47 47 48 47 44 41 39 37 37 38 37 34 37 39 37 34 33 31 31 32 31 29 28 30
31 34 36 36 38 38 38 38 39 39 39 39 38 38 39 40 39 38 38 37 37 37 38 39 39 39 38 38 40 41 43 44 44 45 46 46 46 47 46 42 40 39 39 40 40 39 40 39 39 41 41 41 42 42 43 44 46 48 49 49 50 50 49 50 51 49 46 44 42 43 44 42 40 42 41 38 37 37 35 34 34 33 34 35 36
29 31 34 35 36 38 38 38 38 38 37 38 38 37 38 38 39 38 37 37 38 38 38 38 39 40 41 39 38 40 42 44 44 45 46 46 46 47 47 45 42 40 39 39 39 40 40 40 41 41 42 42 42 42 43 44 43 45 47 49 50 50 50 53 55 53 51 49 47 47 47 46 46 45 41 38 40 41 40 39 38 37 37 35 33
29 29 32 34 35 37 38 37 37 36 36 36 36 37 37 37 38 37 36 36 37 37 37 38 39 40 41 41 39 38 40 42 44 45 45 45 46 46 47 46 44 41 40 39 39 39 39 40 41 41 42 43 42 43 43 43 42 43 43 44 47 48 51 55 57 56 55 54 52 52 50 48 47 45 42 40 41 41 39 36 36 36 32 28 26
29 28 30 34 35 36 37 37 36 35 35 35 35 36 36 36 36 36 36 34 34 35 37 38 39 39 39 40 40 39 39 40 42 44 45 44 44 45 46 46 44 43 41 38 37 38 39 40 41 41 42 42 42 42 42 41 41 41 41 41 41 43 50 55 53 52 55 56 56 55 53 50 47 46 44 42 41 41 38 34 34 35 30 23 20
29 28 29 33 35 35 36 36 35 35 35 35 34 34 34 35 35 35 36 35 35 35 37 37 37 38 38 39 41 41 40 39 39 40 42 43 44 45 45 44 43 42 39 37 37 38 39 40 41 41 42 42 41 41 40 40 41 41 41 39 37 41 50 50 43 43 49 53 55 56 54 52 49 47 46 45 43 42 41 39 38 36 31 25 22
29 29 28 30 33 34 35 35 35 35 35 34 33 33 33 33 33 34 35 35 34 34 34 34 35 36 37 39 39 39 39 39 37 36 36 37 40 44 43 41 41 39 37 37 38 40 41 40 39 39 41 41 40 40 39 39 41 42 41 37 36 44 50 44 38 40 43 45 50 54 54 54 52 49 47 46 45 45 46 45 41 36 34 31 27
28 28 27 27 30 33 34 34 35 34 34 33 32 32 32 31 31 32 32 33 33 32 31 31 32 34 36 36 37 37 37 36 35 34 32 31 34 39 41 40 39 37 36 36 37 38 39 39 38 38 38 38 38 39 39 40 42 43 42 39 41 47 46 38 37 42 42 42 46 50 52 53 52 49 47 46 47 48 49 47 43 40 38 34 32
26 27 26 26 29 31 33 33 34 33 33 32 31 30 30 30 30 30 30 30 30 30 30 29 29 31 32 33 34 34 34 33 31 29 29 29 30 33 37 40 38 35 34 35 36 36 36 35 36 36 37 38 39 39 39 40 41 43 44 45 48 49 44 38 38 41 42 44 45 44 45 47 47 48 48 47 47 49 50 49 46 44 42 38 35
24 26 26 26 27 30 31 31 32 31 31 31 30 29 29 28 28 28 28 28 28 29 29 28 27 26 27 30 31 32 31 31 29 27 27 29 29 31 34 37 37 35 33 34 34 35 34 34 36 36 37 39 40 40 40 41 42 44 47 49 51 51 48 45 43 40 41 44 43 40 40 42 43 45 47 47 47 47 47 47 47 45 45 44 42
24 26 27 27 27 28 29 30 30 30 29 30 29 28 27 28 27 28 28 27 27 27 28 27 26 23 23 26 28 30 30 29 29 28 28 29 31 33 34 35 35 36 36 36 36 36 36 36 37 37 38 38 39 40 41 42 43 45 48 49 50 52 52 50 47 42 41 42 40 37 37 39 40 41 43 45 46 44 43 45 46 47 45 44 44
23 26 28 28 27 27 28 28 29 29 29 29 28 27 26 27 27 28 28 27 26 25 25 26 25 23 21 21 22 25 26 26 26 27 30 31 32 33 34 34 34 36 37 37 35 33 31 31 32 32 33 35 36 38 40 42 44 46 47 49 51 52 53 52 48 44 42 39 35 32 33 35 36 37 41 44 43 42 43 44 45 46 46 44 42
22 25 26 27 26 26 26 27 28 29 28 28 27 26 26 26 26 26 27 26 25 23 23 23 24 23 22 20 18 17 17 18 18 19 22 26 28 30 32 33 34 36 38 37 34 30 27 26 26 26 27 28 30 32 35 38 40 42 44 46 48 50 51 49 47 44 40 34 29 28 30 31 32 35 39 40 39 41 44 45 43 42 41 39 38
20 23 23 25 25 25 25 25 26 27 27 26 26 26 26 26 25 24 25 25 24 23 22 22 22 22 21 19 16 13 11 11 11 10 9 10 13 15 18 20 23 25 28 31 32 32 31 30 29 29 30 31 32 33 36 38 39 40 42 43 44 47 47 44 43 41 37 30 27 28 32 34 37 39 40 40 41 45 48 48 43 39 37 36 35
16 20 21 22 23 24 24 23 24 25 24 24 25 25 26 26 25 24 24 24 22 21 21 21 21 20 18 17 15 12 11 11 9 7 6 5 4 4 3 4 7 9 12 15 19 22 24 26 29 32 34 37 38 40 41 42 42 43 44 45 46 47 47 46 45 42 37 33 32 35 38 40 42 43 42 42 45 48 49 49 45 39 39 40 38
16 18 20 21 22 22 23 22 22 22 21 20 20 21 23 25 24 23 23 22 21 20 19 18 19 19 18 18 15 13 12 12 11 9 6 5 4 3 2 0 3 5 7 10 12 14 17 20 22 26 29 31 33 34 36 37 37 38 39 41 42 44 44 44 44 43 40 38 38 40 41 42 44 45 44 43 44 46 47 48 46 42 42 42 36
15 17 18 19 20 20 20 20 21 21 19 17 14 12 14 18 20 19 19 19 20 20 18 16 15 15 15 16 17 18 16 13 11 9 7 6 4 3 2 1 2 4 7 10 11 13 16 17 19 21 24 25 27 28 29 31 32 33 34 35 36 38 39 39 38 40 42 40 39 41 42 40 41 43 43 44 45 46 47 47 45 42 42 41 36
12 14 15 17 18 18 17 19 22 23 22 20 18 15 12 12 15 16 15 15 17 19 18 16 16 17 17 16 16 17 17 15 13 11 9 7 5 4 3 2 3 4 6 7 8 9 10 12 14 16 19 21 22 24 26 27 28 30 32 32 33 34 36 37 37 39 41 40 39 41 41 39 39 41 42 44 45 45 46 48 48 46 44 40 35
8 9 11 14 16 16 17 20 23 24 23 23 24 23 22 20 18 17 16 15 16 17 17 17 16 17 18 19 18 17 17 16 13 11 10 8 6 5 4 4 6 6 6 8 10 10 11 11 13 16 17 18 20 22 24 25 27 28 30 32 33 33 34 36 37 37 38 38 38 38 38 38 39 41 43 46 47 46 47 48 47 46 44 41 36
14 13 12 13 14 15 20 23 25 25 25 26 28 29 30 28 26 25 25 23 21 21 20 20 19 18 17 18 19 19 18 16 13 12 10 9 8 7 7 7 8 9 11 12 13 13 12 11 13 16 18 19 20 22 23 25 27 28 29 31 33 34 35 37 38 38 38 37 37 37 37 38 40 43 45 46 46 45 45 46 46 44 42 38 35
21 20 19 20 20 20 22 24 24 24 24 25 27 29 30 28 26 26 28 29 28 26 24 22 22 21 20 19 18 18 17 15 13 12 12 11 10 9 9 9 9 11 13 13 13 14 14 14 15 17 19 20 21 23 24 25 27 28 29 30 33 35 38 40 40 40 39 38 38 38 39 39 40 42 43 44 44 41 40 41 42 42 39 36 34
23 22 22 24 24 22 22 23 22 22 22 23 24 25 26 28 29 27 25 26 26 26 26 24 22 20 19 17 16 16 16 14 12 11 11 12 11 10 9 10 10 11 13 14 14 15 16 17 18 19 19 20 22 23 24 26 27 28 29 31 33 37 40 41 40 39 39 38 38 38 39 40 41 40 39 39 41 42 43 43 42 40 36 34 33
23 22 22 24 24 23 22 23 23 22 21 22 24 25 25 28 28 26 24 22 21 21 22 23 22 19 17 15 14 13 13 12 10 9 10 12 11 9 9 10 11 12 13 13 13 13 14 16 17 18 19 20 22 23 24 26 27 27 29 31 33 36 38 38 39 39 37 35 35 36 38 38 39 39 38 35 34 34 35 36 38 38 37 37 36
22 23 22 22 23 23 23 25 26 23 21 21 23 24 25 25 24 23 23 22 21 21 21 21 20 18 15 13 12 11 12 11 9 8 8 9 9 10 12 13 12 12 12 11 10 11 13 14 15 17 18 19 21 22 23 25 26 27 28 30 31 34 35 36 37 38 36 36 37 39 39 37 37 39 39 35 30 30 32 34 36 37 34 31 31
23 24 23 23 24 25 25 26 27 26 24 23 23 23 24 24 24 24 23 22 22 22 21 19 18 17 16 14 11 10 11 11 9 8 8 8 9 11 13 13 12 11 11 10 10 12 15 16 16 17 18 18 20 21 22 24 25 26 26 26 28 29 29 28 28 27 26 26 27 28 29 33 37 37 28 17 18 21 23 24 27 32 34 32 29
22 21 21 22 23 24 25 26 27 27 26 25 24 24 24 25 26 26 24 22 22 22 21 19 17 17 16 13 9 8 10 10 9 9 10 10 9 9 10 10 9 9 10 11 12 13 15 17 18 17 17 17 18 19 21 22 22 23 23 23 25 25 24 22 19 16 12 9 9 13 15 12 8 5 10 21 26 28 29 28 23 26 33 35 30
20 19 19 20 20 21 24 27 27 27 26 25 25 25 25 24 24 23 22 21 22 21 20 18 16 15 13 11 9 9 9 9 9 9 9 9 8 7 8 8 7 7 10 12 13 13 14 16 18 18 17 17 17 18 19 19 19 20 21 21 23 24 23 21 19 17 16 14 14 20 26 29 29 27 28 29 28 31 36 38 34 31 29 27 26
20 19 20 21 22 24 27 27 26 26 25 25 25 25 25 23 22 20 18 18 19 21 20 18 15 13 12 12 12 11 10 10 9 8 7 7 6 6 7 5 4 6 10 12 13 13 14 15 16 17 17 17 17 17 18 17 17 19 19 19 20 22 22 20 18 18 19 20 18 19 27 35 38 37 37 37 35 35 36 36 35 32 29 26 25
19 19 20 21 24 26 28 27 26 25 24 23 23 23 22 21 20 18 16 14 15 19 20 17 15 14 14 14 12 11 10 8 7 5 5 5 4 5 5 4 4 7 11 13 13 13 13 13 14 15 16 16 16 16 17 16 15 16 16 16 17 20 21 19 18 17 18 19 20 20 24 30 34 36 36 37 37 37 36 34 32 30 28 26 24
24 25 25 25 27 27 26 26 27 28 28 27 26 25 25 24 23 22 22 22 20 18 16 14 13 13 14 14 13 12 12 9 6 4 4 4 4 4 5 4 5 9 11 11 11 11 11 11 12 13 15 15 14 14 15 14 13 13 13 13 14 16 18 18 17 18 19 20 21 22 24 29 31 31 31 33 35 35 34 33 31 29 27 26 24
29 29 30 30 31 30 29 28 29 29 29 29 28 28 27 27 26 25 25 25 24 22 19 17 14 14 16 17 17 16 16 15 12 9 8 6 4 4 5 6 8 9 10 10 9 9 9 9 10 11 12 12 12 12 12 11 10 10 10 11 11 13 14 14 15 17 19 20 21 22 24 28 30 29 27 28 29 30 29 29 28 27 26 24 23
31 31 31 32 32 31 30 30 29 28 27 28 29 28 27 27 27 26 25 24 24 23 23 22 21 20 20 21 20 19 19 18 17 16 16 12 7 5 7 9 9 8 8 8 8 7 6 7 8 9 9 9 9 8 8 9 9 8 8 8 9 10 11 12 13 15 17 19 19 20 22 25 28 28 27 26 26 25 24 24 24 23 22 21 20
31 30 30 30 29 29 29 28 28 27 27 27 27 26 26 26 25 25 24 24 23 23 22 22 23 22 21 21 21 21 20 20 19 19 20 17 11 8 10 10 7 6 7 8 8 7 6 6 5 6 6 6 6 6 6 8 9 8 7 6 6 8 9 10 11 12 14 16 17 19 20 22 23 24 25 25 24 22 21 21 21 20 19 19 18
30 29 29 28 28 28 28 28 28 28 28 27 26 24 24 25 25 24 24 23 23 23 23 22 22 23 22 22 22 21 20 20 20 20 20 18 14 12 12 10 6 5 7 8 7 7 7 6 4 5 5 6 6 5 5 7 8 8 7 6 6 6 7 6 7 8 10 12 15 17 19 21 21 21 21 21 21 19 18 17 17 18 19 20 20
30 29 28 27 27 27 27 27 27 27 26 25 25 24 23 24 24 24 24 24 24 23 23 23 23 23 22 22 21 21 20 20 19 19 19 17 14 12 11 10 7 5 5 5 6 7 7 6 5 6 6 6 6 6 6 7 7 7 7 7 6 5 6 6 7 9 10 11 13 15 17 19 19 18 18 18 17 15 14 14 16 18 20 21 22
30 30 29 28 28 27 27 26 26 26 25 24 23 23 23 23 23 23 22 22 23 22 22 22 22 22 23 22 22 22 21 20 20 20 20 19 16 13 12 10 9 7 6 5 6 7 7 7 8 8 8 8 7 6 6 6 7 7 8 8 7 6 5 5 7 9 10 10 11 13 16 17 18 17 17 17 17 16 17 18 18 18 19 20 21
31 30 30 29 29 28 27 26 25 24 23 23 22 22 21 21 21 21 20 20 20 20 20 21 22 23 24 24 24 24 23 23 22 22 22 21 19 17 15 12 10 9 7 7 9 9 8 8 9 10 10 10 8 7 7 7 7 8 8 8 8 7 6 7 8 9 10 11 12 13 16 17 17 17 17 17 17 17 19 20 19 18 18 18 19
31 31 31 30 30 28 28 28 27 26 24 24 23 22 21 22 22 21 20 20 20 20 21 22 23 24 25 25 24 24 25 25 25 26 25 24 23 21 18 15 14 12 10 10 10 10 9 8 8 8 7 7 6 6 7 8 8 8 8 8 7 7 6 6 6 6 7 8 9 11 13 14 13 13 13 13 13 13 15 16 16 16 16 16 16
29 29 30 30 30 29 28 27 27 25 25 25 24 23 23 23 23 22 22 22 22 21 21 21 22 23 24 24 23 23 24 25 27 30 29 28 26 24 22 20 19 17 15 13 13 11 10 9 8 7 6 6 6 7 8 8 9 9 8 7 7 7 7 6 6 5 4 5 6 7 8 10 10 10 10 10 9 10 10 11 12 13 14 14 14
Wind_Direction
202 203 203 203 204 204 204 204 204 204 204 204 204 205 205 204 203 202 203 204 205 207 209 210 211 211 212 212 212 212 211 211 213 215 216 217 218 218 217 215 216 219 221 221 219 218 218 219 221 224 224 224 224 223 223 225 229 234 234 232 227 223 222 218 219 236 239 238 243 239 233 226 218 216 218 221 225 229 233 237 238 236 236 239 242
202 204 204 204 205 205 205 205 204 204 204 204 206 206 206 206 204 202 202 204 205 206 207 209 210 210 211 212 212 212 212 212 212 213 214 215 217 217 217 216 217 218 220 221 220 219 219 220 222 224 225 226 227 226 225 224 226 231 233 231 229 226 224 222 221 227 236 237 234 229 223 217 213 213 216 221 225 226 228 230 231 232 236 240 243
203 204 204 205 206 206 206 206 205 204 204 204 206 207 207 207 206 204 204 204 205 207 208 209 210 210 211 211 211 212 213 213 213 213 214 215 215 216 216 216 217 218 219 221 222 221 220 221 223 223 223 226 227 228 228 225 224 228 231 231 231 230 227 226 224 223 229 235 232 220 209 208 211 215 217 220 225 225 225 226 227 228 233 240 246
202 203 205 207 207 207 207 207 206 205 205 206 207 207 207 207 206 206 206 206 206 207 209 210 210 210 211 211 211 212 213 214 214 215 216 216 216 216 216 216 217 218 219 220 221 221 221 222 224 224 222 223 226 228 228 227 225 226 231 232 232 232 230 228 228 227 227 232 232 226 216 212 214 218 219 220 222 224 224 226 226 229 234 239 245
201 202 204 206 206 206 207 207 206 207 207 208 209 208 208 207 207 207 207 206 207 208 208 209 210 210 211 212 212 213 214 215 216 216 217 218 218 218 217 217 218 219 220 221 220 221 222 223 224 224 222 222 224 226 227 227 226 226 228 231 231 231 230 229 229 230 228 229 231 229 225 221 217 217 217 217 218 221 224 227 229 231 234 237 242
201 202 204 205 205 206 206 206 206 207 208 209 209 209 208 207 207 207 207 207 207 209 209 208 210 211 212 213 213 214 215 216 217 218 218 218 219 220 219 219 219 220 221 222 222 221 222 223 225 224 222 222 224 226 227 227 227 226 226 229 230 228 227 227 228 228 228 229 231 229 227 225 222 220 220 218 217 218 219 224 230 233 234 233 235
201 202 203 205 205 206 206 206 207 207 208 209 209 209 208 208 208 207 207 207 207 208 209 209 210 212 213 214 214 215 216 216 218 219 218 218 219 220 220 220 221 222 223 224 224 224 223 224 224 224 223 224 225 226 227 227 228 228 227 227 228 226 224 224 224 224 225 226 228 228 227 226 227 227 227 225 223 224 222 219 222 227 229 231 232
200 202 203 204 206 207 207 207 207 208 208 208 208 208 208 208 208 208 207 207 208 208 209 210 211 212 214 214 215 216 216 217 218 219 219 219 219 219 221 221 221 222 224 225 226 226 226 226 226 226 226 226 227 228 228 228 228 228 228 227 226 225 223 222 221 222 223 224 225 226 226 226 228 229 227 221 218 221 223 221 221 223 224 227 232
199 200 202 204 206 207 208 208 208 208 208 208 207 208 208 207 207 207 207 208 209 210 210 211 211 212 213 215 215 216 217 218 218 219 219 219 219 220 221 222 223 223 224 226 227 227 228 228 228 229 228 229 230 230 231 231 229 229 228 226 224 224 224 222 220 220 221 222 224 224 223 224 225 223 219 216 215 218 221 221 223 226 226 226 231
198 199 202 204 206 207 207 208 208 208 207 207 207 207 208 207 207 207 208 209 209 210 211 211 212 212 213 214 215 216 217 219 219 220 220 220 219 220 221 222 223 224 224 225 227 228 228 229 230 231 231 231 232 233 233 233 233 233 232 228 225 224 223 222 221 220 220 220 222 220 219 222 223 221 219 219 220 221 221 219 222 226 225 224 230
196 199 201 203 204 205 206 207 208 208 208 207 207 207 207 207 207 207 208 209 209 209 210 211 212 213 213 214 215 216 218 220 221 221 222 222 221 221 221 223 223 224 225 225 226 228 229 230 231 232 233 233 233 234 235 235 235 236 235 233 231 228 224 222 222 221 220 221 223 221 219 223 225 222 223 224 221 220 220 219 219 219 215 215 223
197 199 201 201 202 202 204 206 207 208 208 208 207 207 207 207 207 207 208 208 208 208 208 210 212 213 213 214 215 217 220 221 222 222 223 224 224 223 223 224 224 224 225 226 227 228 229 230 232 232 233 233 233 234 235 236 237 237 237 236 236 234 231 228 226 223 220 221 223 223 222 225 227 225 223 223 222 221 220 219 218 217 215 215 220
198 200 200 199 200 201 202 203 205 207 208 208 208 207 207 207 208 208 208 208 207 207 208 209 210 212 212 213 214 217 221 223 223 223 224 225 225 226 226 226 226 226 226 227 228 228 229 230 231 233 234 235 234 234 234 235 236 238 238 237 236 236 235 235 234 230 225 222 222 224 226 225 226 227 226 222 220 220 219 219 219 219 218 220 224
201 199 200 199 199 199 200 201 204 206 207 208 208 208 208 208 209 209 208 208 207 207 208 208 209 211 212 214 214 216 221 224 223 224 225 226 227 227 227 228 229 230 230 230 230 230 230 231 231 233 234 235 234 234 233 234 234 235 235 235 235 236 236 236 237 234 230 228 227 229 231 229 228 231 229 222 219 219 218 218 218 218 220 225 229
203 199 199 200 199 198 199 200 202 204 205 206 207 208 209 209 210 210 209 208 209 209 208 209 210 211 213 215 215 216 220 224 225 225 226 227 228 228 228 229 231 233 233 234 234 234 233 233 234 235 235 235 235 234 233 233 233 233 233 232 233 234 235 236 236 234 232 231 231 233 236 234 233 235 231 224 222 223 222 222 222 222 223 226 229
204 199 198 199 199 198 199 199 201 202 203 204 206 207 208 209 210 210 210 211 211 211 211 211 211 212 213 215 217 218 221 223 225 227 227 228 228 227 228 229 231 233 235 236 236 237 237 236 237 237 238 238 237 236 236 234 232 233 233 233 233 234 236 238 238 236 234 233 234 236 237 237 237 236 233 227 225 225 225 225 224 221 219 219 221
204 200 198 199 199 199 199 199 199 201 201 202 205 206 208 209 210 210 210 211 212 212 213 213 214 214 214 215 218 221 223 224 226 228 229 228 227 226 227 228 231 233 236 237 238 240 240 239 239 239 240 241 241 240 239 236 234 234 234 235 235 236 239 240 239 238 237 237 237 237 238 238 238 238 235 232 228 224 219 217 218 214 211 212 214
207 203 200 199 199 199 199 199 199 199 200 202 204 205 207 209 210 210 210 212 213 214 214 215 216 216 216 217 219 222 225 226 227 228 229 228 227 226 226 227 230 234 236 238 240 242 243 243 242 242 242 244 244 243 242 238 236 236 236 237 236 238 241 242 239 239 240 239 239 239 239 239 238 238 237 234 230 224 217 216 216 210 207 210 209
209 207 203 200 199 199 199 199 199 199 200 202 203 204 206 208 210 211 211 213 215 216 216 216 217 218 219 221 222 224 227 229 230 230 231 229 228 227 225 226 230 233 236 238 240 243 244 245 245 245 246 247 247 246 245 241 239 238 238 238 238 241 244 243 239 240 240 239 239 238 237 237 236 237 237 235 231 226 222 221 218 210 208 211 206
211 210 208 203 200 199 200 199 199 199 200 202 203 204 206 207 208 210 211 213 216 217 218 218 219 220 221 223 225 227 229 231 232 234 235 233 231 228 225 225 228 231 234 237 240 243 245 247 248 249 250 251 250 250 248 245 243 242 240 238 239 244 248 247 243 242 241 240 240 238 237 236 235 234 235 233 230 226 225 224 220 214 211 209 203
212 210 209 205 200 198 199 199 199 200 200 201 202 204 205 206 207 208 210 212 215 217 219 220 221 222 223 224 226 229 231 233 234 235 237 237 237 234 230 229 230 232 234 238 241 244 246 248 250 251 252 253 253 253 252 250 248 246 243 242 244 249 251 251 248 245 242 241 241 238 236 236 234 233 232 231 229 226 224 223 222 219 216 211 205
212 209 207 205 201 198 198 198 198 198 198 199 201 203 204 206 207 208 209 211 214 216 220 222 223 224 224 224 227 230 232 235 236 237 239 240 240 240 238 238 237 235 235 238 241 245 248 251 253 254 255 255 256 255 255 255 253 251 250 250 251 253 253 252 251 247 243 241 240 237 234 233 231 231 231 231 230 228 224 222 222 221 220 217 212
210 205 203 203 201 198 197 196 196 195 195 198 200 201 202 204 206 208 209 210 212 215 218 221 223 224 223 223 225 228 231 234 236 239 241 242 243 242 243 244 244 241 238 240 243 246 248 251 254 256 257 258 259 259 258 257 256 255 255 256 257 257 255 253 251 248 245 243 240 236 233 232 230 230 230 230 230 229 227 225 223 223 223 221 219
203 200 199 200 198 196 195 194 193 193 194 197 199 199 199 201 204 207 208 209 210 213 216 218 221 224 224 221 220 223 226 230 233 236 239 240 240 241 242 243 243 241 239 241 245 248 250 252 254 257 259 260 261 261 261 261 259 259 259 260 261 260 257 253 251 249 247 245 242 240 240 237 234 233 233 232 230 229 229 228 226 224 223 221 218
195 194 194 195 194 193 191 191 191 192 195 197 198 197 197 199 202 204 205 205 206 208 211 213 216 220 222 221 218 216 216 218 221 227 233 235 236 238 240 241 241 240 239 241 244 247 249 252 254 256 260 263 264 264 264 264 264 263 263 263 263 261 258 255 252 250 247 247 248 250 250 247 243 241 239 235 230 228 227 227 225 223 220 216 212
190 191 191 191 190 187 186 187 189 191 195 197 197 198 199 200 201 201 201 203 205 205 205 207 211 215 217 216 213 206 196 194 196 201 210 221 228 233 238 244 246 247 249 251 253 254 256 259 262 264 266 268 269 270 271 270 271 271 271 270 269 266 263 259 256 253 251 251 253 253 250 249 248 246 242 235 228 224 222 220 217 212 207 203 199
188 187 187 186 184 182 183 184 186 188 192 195 197 199 200 199 199 199 200 201 201 201 201 203 204 205 205 204 200 188 173 163 156 153 158 159 161 178 202 233 247 254 260 262 264 267 268 269 270 270 271 272 273 274 276 276 276 276 275 274 273 270 267 263 259 257 254 250 247 247 247 246 245 243 238 231 226 223 219 215 209 201 197 196 194
179 178 179 179 179 181 182 182 181 182 183 184 188 193 196 197 198 199 200 200 198 196 194 195 196 196 197 195 181 155 140 139 136 131 133 129 117 117 124 263 273 273 276 276 278 279 279 279 278 277 278 280 282 283 284 283 281 280 278 276 276 274 272 269 264 261 258 252 244 242 240 236 234 236 235 231 228 224 218 212 205 197 192 192 191
162 163 168 173 178 181 181 177 172 167 161 156 156 164 181 189 191 193 196 197 197 195 189 182 181 180 177 175 165 148 133 129 129 124 119 112 100 90 82 42 307 299 297 294 292 291 289 290 291 291 294 298 299 297 294 292 290 288 285 283 282 281 278 274 267 263 261 257 248 243 238 232 229 230 229 228 226 222 215 208 201 195 191 191 191
154 160 167 174 179 183 180 168 157 153 150 143 134 122 126 153 168 173 178 183 190 194 190 177 169 165 154 144 146 146 135 124 120 118 113 109 104 90 67 30 352 332 322 318 318 317 316 317 319 319 319 317 311 305 302 301 298 295 294 292 290 288 285 281 275 270 266 262 255 249 243 236 231 228 225 224 222 218 211 204 197 191 189 190 188
125 142 163 172 174 175 167 151 143 143 142 139 132 118 105 104 112 120 130 142 153 161 159 149 144 151 146 130 121 121 118 115 115 113 108 100 90 74 44 20 13 10 12 13 10 7 1 351 341 336 329 319 311 306 304 303 300 299 299 298 295 293 290 286 284 281 276 270 264 258 250 241 234 229 223 220 217 213 206 201 195 191 189 188 184
97 97 116 129 133 139 141 137 133 133 132 131 130 124 111 101 95 96 102 110 116 120 123 120 117 120 123 121 117 114 111 109 107 103 94 83 70 55 41 34 31 28 26 22 16 10 3 349 337 332 326 318 313 310 307 304 301 299 299 297 295 294 291 287 286 285 282 278 273 266 257 247 239 233 227 220 214 207 199 194 191 188 186 184 180
99 95 98 101 102 110 122 126 127 127 128 127 128 127 122 115 108 102 100 102 105 106 106 108 109 108 108 110 111 110 109 105 100 92 79 68 61 51 45 47 44 33 25 17 8 3 357 346 335 331 325 319 316 314 310 306 304 302 298 295 294 293 292 291 289 284 280 278 276 271 266 257 248 241 234 225 215 205 195 189 186 183 180 177 174
97 96 97 97 97 101 112 121 124 125 125 125 125 123 123 122 120 116 110 107 105 104 101 99 99 100 101 103 105 108 108 103 98 91 75 61 56 53 51 53 47 32 22 15 8 2 354 343 334 329 325 321 319 318 315 312 309 306 302 299 297 296 296 295 291 286 281 277 274 271 269 264 258 251 243 231 217 203 192 185 180 175 171 170 168
96 95 94 95 94 96 104 115 122 126 128 128 126 125 126 126 125 124 122 117 112 108 101 96 92 90 89 93 101 107 108 104 98 88 69 54 51 50 50 48 39 27 19 13 5 356 346 336 330 326 325 324 323 321 318 315 313 310 307 305 303 301 300 298 294 290 286 281 277 274 271 267 262 256 250 239 222 204 190 179 171 167 168 170 167
95 97 95 94 94 95 98 104 110 118 125 130 131 132 132 131 130 129 127 123 119 114 106 96 90 84 78 80 92 102 100 92 85 80 67 51 41 37 35 31 23 14 8 2 354 345 340 335 331 329 329 328 328 327 324 321 319 316 313 314 313 309 306 304 300 297 293 287 281 277 273 270 267 261 250 234 212 193 177 166 163 164 164 162 157
93 97 99 98 96 96 97 99 101 104 107 112 119 122 119 115 114 117 121 122 121 118 109 96 85 74 63 60 73 95 99 91 83 77 64 43 32 32 31 23 13 3 356 350 343 339 339 340 337 336 335 333 332 332 330 327 326 325 325 328 328 324 320 318 317 315 309 300 293 289 282 274 266 257 240 199 154 142 140 145 156 157 148 140 138
97 99 101 102 102 99 96 95 96 98 100 102 106 109 108 104 102 105 114 121 123 118 109 96 81 69 62 59 69 99 107 98 84 72 55 40 34 32 25 15 5 357 352 347 341 338 339 340 339 338 337 336 335 335 335 334 336 339 340 343 343 340 338 340 346 353 359 2 14 23 16 352 308 235 142 118 111 109 107 104 109 119 124 128 136
99 100 99 100 102 100 96 92 90 89 89 90 91 94 98 98 96 97 102 109 115 116 112 102 89 79 74 72 79 94 96 80 66 65 59 49 41 29 16 5 353 349 352 350 344 340 337 337 338 337 336 335 336 338 341 344 347 351 353 354 354 351 349 349 356 8 21 35 56 72 75 72 73 79 86 91 97 103 105 106 108 111 117 127 141
100 100 98 95 95 96 94 92 89 86 86 86 87 89 92 95 98 101 102 106 116 121 117 107 98 88 79 73 72 75 73 62 57 62 60 46 29 13 4 352 336 351 0 356 346 339 335 335 335 334 333 335 339 342 346 351 358 1 2 5 7 6 5 5 11 21 31 38 47 69 85 92 96 99 100 102 103 105 107 112 120 128 134 142 151
93 92 90 88 90 92 90 87 83 81 82 82 82 82 84 85 89 93 88 87 107 122 121 112 101 86 73 67 65 61 58 58 64 65 48 25 8 4 3 351 345 0 2 355 345 339 335 333 333 331 330 335 340 341 344 351 1 6 9 14 20 22 23 26 31 40 52 61 63 66 79 93 102 105 109 114 119 121 122 126 133 141 147 151 154
80 77 75 75 77 79 78 77 74 72 71 69 66 65 66 66 66 66 61 58 69 89 100 101 97 84 66 56 54 52 46 44 48 47 29 7 358 9 15 5 354 356 354 347 340 336 332 331 331 329 330 334 339 340 344 353 3 9 13 20 28 33 36 41 49 55 60 66 72 77 86 97 103 105 108 116 122 127 132 137 144 151 154 155 157
74 72 70 70 69 69 68 69 70 68 66 65 62 60 60 59 57 55 54 52 53 56 56 53 57 59 50 44 46 46 42 38 36 29 18 8 12 26 20 2 349 347 345 341 337 334 330 330 330 329 330 337 342 343 346 354 4 11 17 25 36 43 48 56 67 76 77 75 77 82 90 99 105 107 110 116 124 131 137 141 145 150 154 158 162
73 71 70 69 68 67 66 66 67 66 64 63 61 58 56 56 53 51 49 47 45 45 44 40 39 40 39 38 40 39 35 32 30 25 19 19 29 31 5 351 346 349 354 351 347 343 336 329 328 330 336 346 351 349 349 359 11 17 19 26 39 53 65 74 83 91 95 94 93 95 99 105 109 113 116 121 126 131 135 140 143 148 153 157 159
71 69 68 67 66 65 64 63 63 63 62 61 59 56 53 52 51 48 46 44 42 40 39 37 35 35 33 32 33 33 31 28 24 21 21 26 30 17 0 356 358 7 13 13 9 1 351 337 334 341 349 355 358 358 359 10 21 26 27 35 50 63 73 83 95 104 109 110 110 110 111 112 113 114 118 124 129 133 138 145 150 152 157 162 162
69 68 68 67 66 65 64 62 62 62 61 59 57 55 52 51 50 48 46 45 44 42 38 35 34 34 32 29 28 28 29 28 23 18 20 24 25 12 2 3 16 29 31 33 27 11 359 353 352 355 356 358 3 8 8 13 22 32 38 44 59 71 73 80 99 112 117 117 117 115 115 116 117 118 120 124 129 132 136 146 155 162 169 173 172
69 68 67 67 67 67 66 64 63 63 61 59 56 53 51 49 49 48 46 44 44 43 40 37 35 34 32 29 27 26 29 31 27 22 20 23 26 20 9 5 12 23 24 19 10 3 3 8 6 359 359 5 11 14 15 15 24 38 47 51 58 72 82 92 102 109 116 121 123 121 118 115 114 117 124 130 132 132 138 150 161 165 167 168 167
70 69 68 67 68 67 66 65 64 62 59 57 56 55 52 50 49 47 46 45 44 43 41 38 37 35 33 32 30 31 35 36 33 29 28 29 33 36 32 22 15 7 360 4 15 23 28 30 23 15 15 21 23 23 26 31 37 46 53 57 61 69 85 99 103 107 113 121 126 129 127 121 117 118 127 136 139 140 144 152 158 159 160 163 165
72 72 71 70 69 69 67 67 67 65 63 64 63 61 58 56 53 51 49 47 46 45 42 39 37 36 35 34 32 34 37 39 36 33 33 36 40 46 48 41 33 27 28 39 46 45 41 38 34 30 30 33 35 35 39 44 51 55 58 62 67 74 87 99 107 111 114 116 123 131 133 131 127 125 127 133 139 143 146 150 153 156 159 165 169
74 74 74 72 72 72 72 72 72 71 69 69 69 66 64 61 59 56 54 52 49 45 42 39 38 38 37 35 33 33 37 39 39 37 36 37 42 49 55 56 53 51 51 49 44 37 35 38 44 47 47 43 37 31 32 37 40 42 43 46 49 52 60 77 96 108 105 101 111 127 136 137 136 130 125 125 131 137 142 146 149 152 155 159 166
76 76 76 76 75 74 74 73 74 73 72 71 70 69 68 67 64 61 59 56 53 49 44 41 40 40 39 37 36 36 37 38 40 41 41 39 40 46 55 61 62 60 58 56 54 51 48 49 52 56 57 51 42 43 48 51 47 43 42 46 50 52 55 63 73 80 79 79 94 115 130 136 138 136 135 136 139 139 143 150 156 159 157 154 154